Track STARLINK-1483 now! 10-day predictions STARLINK-1483 is classified as:
1 45743U 20038P 22138.34576405 .00001219 00000-0 10071-3 0 9991 2 45743 53.0624 2.5062 0002053 37.3491 322.7641 15.06401001106489